Location: ???
(60.6398°N, 46.9067°E)
Time: 19:08:11
(UTC+00:00)

Cosmos 2369 Rocket - Pass Details

Date: 08 December 2019
Orbit: 828 x 853 km, 71.0° (Epoch: 17 January)

Event Time Altitude Azimuth Distance (km) Brightness Sun altitude
Rises 14:20:18 0° 313° (NW) 3,386 5.8 -16.8°
Reaches altitude 10° 14:22:50 10° 319° (NW) 2,453 4.9 -17.1°
Maximum altitude 14:28:16 48° 34° (NE) 1,081 2.4 -17.8°
Enters shadow 14:30:42 30° 90° (E) 1,460 2.9 -18.1°
